Volver al catálogo

STARLINK-34164

ActivoComunicacionesVLEO
NORAD 64177·PAYLOAD·🇺🇸 United States

Lanzado May 28, 2025 desde Cape Canaveral Space Force Station

Loading…

Próximos Pases (próximas 24 horas)

TLE

ActualizadoSource: CelesTrak SupGP

Época: Sep 15, 2026, 03:39 UTC

1 64177C 25113H   26258.15256944  .00001903  00000+0  56192-4 0  2583
2 64177  53.1577 290.5905 0001203  99.9189 125.7984 15.34402547    18

Sigue STARLINK-34164 en tiempo real con AllMySat

Download on the App Store